Regional Weather Roundup
Issued by NWS

Home | Current Version | Previous Version | Text Only | Print | Product List | Glossary On
Versions: 1 2 3 4 5 6 7 8 9 10 11 12 13 14 15 16 17 18 19 20 21 22 23 24 25 26 27 28 29 30 31 32 33 34 35 36 37 38 39 40 41 42 43 44 45 46 47 48 49 50
000
ASUS46 KLOX 190412
RWRCA

SOUTHERN CALIFORNIA WEATHER ROUNDUP
NATIONAL WEATHER SERVICE OXNARD CALIFORNIA
800 PM PST THU DEC 18 2014

NOTE: "FAIR" INDICATES FEW OR NO CLOUDS BELOW 12,000 FEET WITH NO
SIGNIFICANT WEATHER AND/OR OBSTRUCTIONS TO VISIBILITY.

  -  STATIONS PRECEEDED BY AN ASTERISK (*) ARE NOT NWS OR FAA
     STATIONS AND ARE NOT SUBJECT TO NWS AND FAA QUALITY CONTROL.

CAZ041-042-087-190500-
LA AND ORANGE COUNTY COASTAL AREAS


CITY           SKY/WX    TMP DP  RH WIND       PRES   REMARKS
L.A. DOWNTOWN  CLEAR     55  49  80 CALM      30.20R
L.A. AIRPORT   PTCLDY    58  51  78 N3        30.21R
LONG BEACH     CLEAR     58  51  78 CALM      30.20R

CITY           SKY/WX    TMP DP  RH WIND       PRES   REMARKS
AVALON           N/A     52 N/A N/A S2          N/A
FULLERTON      CLEAR     55  49  80 CALM      30.20R
*GETTY CENTER    N/A     54  45  71 N5          N/A
HAWTHORNE      CLEAR     59  51  75 CALM      30.21R
*LEO CARRILLO    N/A     52  47  83 N7          N/A
*LOS ALAMITOS  CLEAR     54  52  92 CALM      30.21R
*REDONDO BEACH   N/A     54  48  81 CALM      30.20R
SANTA ANA      CLEAR     60  50  69 CALM      30.20R
STA MONICA APT CLEAR     55  48  77 CALM      30.21R
TORRANCE       PTCLDY    54  52  94 CALM      30.21R
*UCLA            N/A     54  46  76 N2        30.18R

$$

CAZ547-548-048-190500-
LA COUNTY VALLEYS AND INLAND EMPIRE


CITY           SKY/WX    TMP DP  RH WIND       PRES   REMARKS
BURBANK        CLEAR     53  46  77 CALM      30.20R
VAN NUYS       CLEAR     54  48  80 CALM      30.20R

CITY           SKY/WX    TMP DP  RH WIND       PRES   REMARKS
CORONA AIRPORT CLEAR     47  47 100 CALM      30.21R
*CHATSWORTH      N/A     53  47  81 CALM      30.21R
CHINO          CLEAR     52  46  80 CALM      30.21R
*CLAREMONT       N/A     46  42  84 N2          N/A
MARCH AFB      CLEAR     47  46  99 CALM      30.20R
*NORTHRIDGE      N/A     52  46  82 N1          N/A
ONTARIO        PTCLDY    53  45  74 NW6       30.20R
*PASADENA        N/A     54  48  82 E2          N/A
POMONA         PTCLDY    48  45  87 CALM      30.23R
RIVERSIDE      CLEAR     52  45  77 CALM      30.21R
SAN BERNARDINO PTCLDY    50  41  71 SE5       30.21R
*SAN GABRIEL     N/A     55  46  72 CALM      30.19R
*SAN RAFAEL HI   N/A     51  45  80 W3          N/A
*SAUGUS          N/A     53  44  72 S7          N/A
*WHITEMAN AP   NOT AVBL
*WHITTIER HILL   N/A     53  51  91 CALM        N/A
*WOODLAND HILL   N/A     48  45  87 SE2         N/A

$$

CAZ054-055-190500-
LA AND SAN BERNARDINO COUNTY MOUNTAINS


CITY           SKY/WX    TMP DP  RH WIND       PRES   REMARKS
*ACTON           N/A     43  37  78 W2          N/A
*BIG BEAR AIRP CLEAR     27  25  93 CALM      30.22R
*BIG PINES       N/A     29  29  99 CALM        N/A
*CHILAO          N/A     37  34  89 W2          N/A
MT WILSON NWS    N/A     34  34 100 SE1         N/A
SANDBERG       CLEAR     42  33  70 E5        30.22R
*WARM SPRINGS    N/A     41  33  72 NE9         N/A

$$

CAZ028-029-059-060-099-190500-
ANTELOPE VALLEY AND SURROUNDING AREAS


CITY           SKY/WX    TMP DP  RH WIND       PRES   REMARKS
LANCASTER      CLEAR     40  36  86 W7        30.23R
PALMDALE       CLEAR     43  37  79 S7        30.22R
*POPPY PARK      N/A     42  36  80 W3          N/A

CITY           SKY/WX    TMP DP  RH WIND       PRES   REMARKS
29 PALMS       CLEAR     46  35  65 W8        30.28R
BARSTOW/DAGGET CLEAR     44  37  76 W5        30.22R
BISHOP         CLEAR     30  24  78 CALM      30.19R
CHINA LAKE     PTCLDY    44  38  79 SW3       30.21R
EDWARDS AFB    MOCLDY    44  41  90 NE2       30.21R
MOJAVE         MOCLDY    46  39  76 CALM      30.22S
NEEDLES        CLEAR     52  42  69 W7        30.19R
VICTORVILLE    CLEAR     43  37  81 CALM      30.22R

$$

CAZ039-040-190500-
VENTURA AND SANTA BARBARA COUNTY COAST


CITY           SKY/WX    TMP DP  RH WIND       PRES   REMARKS
CAMARILLO      CLEAR     53  48  83 E5        30.20R
NWS OXNARD       N/A     52  47  83 CALM      30.20R
OXNARD AIRPORT CLEAR     54  49  83 CALM      30.20R
*POINT MUGU    PTCLDY    57  51  80 NE5       30.21R
SBA APT/GOLETA CLOUDY    58  52  80 NW3       30.20R
*SANTA BARBARA   N/A     59  49  70 CALM      30.28R
*VENTURA         N/A     53  47  81 CALM      30.23S

$$

CAZ044-045-190500-
VENTURA COUNTY VALLEYS


CITY           SKY/WX    TMP DP  RH WIND       PRES   REMARKS
*SIMI VALLEY     N/A     50  48  91 CALM      30.20R
*OJAI            N/A     47  45  91 CALM      30.18R
*FILLMORE        N/A     50  43  78 CALM      30.12R

$$

CAZ053-190500-
VENTURA COUNTY MOUNTAINS


CITY           SKY/WX    TMP DP  RH WIND       PRES   REMARKS
*LOCKWOOD VLY    N/A     30  30 100 CALM        N/A
*ROSE VALLEY     N/A     41  43 100 MISG        N/A

$$

CAZ034-035-036-190500-
CENTRAL COAST AND SANTA YNEZ VALLEY


CITY           SKY/WX    TMP DP  RH WIND       PRES   REMARKS
SAN LUIS OBISP CLEAR     50  49  96 CALM      30.20R
SANTA MARIA    CLEAR     51  47  86 SE5       30.20R

CITY           SKY/WX    TMP DP  RH WIND       PRES   REMARKS
*CAL POLY SLO    N/A     48  48 100 CALM        N/A
*LOMPOC        MOCLDY    52  46  82 CALM      30.21R
*PISMO BEACH     N/A     52  49  92 CALM      30.21R
*SANTA YNEZ    CLOUDY    52  50  93 CALM      30.21R

$$

CAZ037-038-051-190500-
SAN LUIS OBISPO COUNTY INTERIOR AND CUYAMA VALLEY


CITY           SKY/WX    TMP DP  RH WIND       PRES   REMARKS
*CUYAMA          N/A     47  44  88 CALM      30.20R
PASO ROBLES    CLEAR     48  45  89 CALM      30.20R

$$

CAZ032-033-061-190500-
SOUTHERN DESERTS


CITY           SKY/WX    TMP DP  RH WIND       PRES   REMARKS
BLYTHE         CLEAR     53  46  77 NW5       30.18S
IMPERIAL       CLEAR     53  43  68 CALM      30.18R
PALM SPRINGS   CLEAR     58  43  57 W6        30.21R
THERMAL        CLEAR     46  40  79 N3        30.18R

$$

ELSEWHERE ACROSS THE WESTERN UNITED STATES AND MEXICO


CITY           SKY/WX    TMP DP  RH WIND       PRES   REMARKS
DENVER, CO     PTCLDY    28  25  88 SW8       30.07R WCI  20
GRAND CANYON,  CLEAR     25  23  92 CALM      30.20R
HONOLULU, HI   MOCLDY    77  66  69 NE10      30.07R
KAHULUI, MAUI  PTCLDY    73  66  78 NE16G26   30.06R
LAKE TAHOE, CA CLOUDY    32  25  75 CALM      30.15S
LAS VEGAS, NV  PTCLDY    50  38  63 SW7       30.17R
MAMMOTH LAKES, FAIR      19  18  93 CALM      30.20S
MEXICO CITY, M CLEAR     61  45  55 SE5       30.32R
PHOENIX, AZ    CLEAR     54  43  66 SW3       30.16R
PORTLAND, OR   LGT RAIN  46  42  86 E18       29.80F
RENO, NV       CLOUDY    40  30  67 CALM      30.13S
SALT LAKE CITY MOCLDY    34  29  82 SE7       30.18R WCI  28
SAN DIEGO, CA  MOCLDY    61  50  67 CALM      30.22R
SAN FRANCISCO, CLOUDY    57  55  93 E5        30.15R
SAN JOSE, CA   CLOUDY    54  48  80 CALM      30.16R
SEATTLE, WA    LGT RAIN  47  40  76 E10       29.73F
TIJUANA, MEX   PTCLDY    57  48  72 CALM      30.23R

$$

STATION/POSITION TIME  TEMP    WIND        PRES    VSBY  WAVE
                       AIR SEA DIR/SP/G                  HT/PER
                 (UTC) (F)     (DEG/KT/KT) (MB)    (MI)  (FT/S)
POINT ARGUELLO B NOT AVBL
WEST SANTA BARBA 0400   59 61  160/  2/  4 1022.3R         8/14
POINT CONCEPTION NOT AVBL
EAST SANTA BARBA NOT AVBL
SANTA MONICA BAY 0400   59 63  100/  2/  4 1022.9R         3/11


USA.gov is the U.S. government's official web portal to all federal, state and local government web resources and services.